This is the latest recevied weather packets stored in our database for station/object WA1TYB-13. If no packets are shown the sender has not sent any weather packets the latest 10 day(s).
| Time | Temp. | Humidity | Pressure | Rain* | Wind** | Luminosity | Snow |
|---|---|---|---|---|---|---|---|
| 1778093436 | 13.33° C | 34% | 1016.6 hPa | 0 mm | - | 605 W/m² | - |
| 1778093133 | 13.33° C | 33% | 1016.5 hPa | 0 mm | - | 636 W/m² | - |
| 1778092831 | 12.78° C | 34% | 1017.2 hPa | 0 mm | - | 644 W/m² | - |
| 1778092526 | 12.78° C | 34% | 1016.9 hPa | 0 mm | - | 626 W/m² | - |
| 1778092223 | 12.78° C | 32% | 1017 hPa | 0 mm | - | 623 W/m² | - |
| 1778091920 | 12.78° C | 34% | 1017 hPa | 0 mm | - | 641 W/m² | - |
| 1778091618 | 12.22° C | 34% | 1017.2 hPa | 0 mm | - | 642 W/m² | - |
| 1778091315 | 12.22° C | 34% | 1017.5 hPa | 0 mm | - | 640 W/m² | - |
| 1778091012 | 11.67° C | 38% | 1017.4 hPa | 0 mm | - | 646 W/m² | - |
| 1778090709 | 11.67° C | 35% | 1017.6 hPa | 0 mm | - | 659 W/m² | - |
| 1778090404 | 11.67° C | 34% | 1017.5 hPa | 0 mm | - | 682 W/m² | - |
| 1778090101 | 11.11° C | 36% | 1017.8 hPa | 0 mm | - | 669 W/m² | - |
| 1778089792 | 11.67° C | 35% | 1017.7 hPa | 0 mm | - | 681 W/m² | - |
| 1778089491 | 10.56° C | 36% | 1017.8 hPa | 0 mm | - | 684 W/m² | - |
| 1778089187 | 10.56° C | 36% | 1018 hPa | 0 mm | - | 708 W/m² | - |
| 1778088884 | 10.56° C | 37% | 1018 hPa | 0 mm | - | 698 W/m² | - |
| 1778088581 | 10.56° C | 37% | 1018.2 hPa | 0 mm | - | 686 W/m² | - |
| 1778088278 | 10° C | 36% | 1018.2 hPa | 0 mm | - | 702 W/m² | - |
| 1778087974 | 10° C | 38% | 1018.1 hPa | 0 mm | - | 697 W/m² | - |
| 1778087672 | 10° C | 38% | 1018.4 hPa | 0 mm | - | 701 W/m² | - |
| 1778087370 | 9.44° C | 40% | 1018.2 hPa | 0 mm | - | 685 W/m² | - |
| 1778087066 | 8.89° C | 41% | 1018.2 hPa | 0 mm | - | 661 W/m² | - |
| 1778086759 | 9.44° C | 42% | 1018.6 hPa | 0 mm | - | 686 W/m² | - |
| 1778086457 | 9.44° C | 40% | 1018.5 hPa | 0 mm | - | 665 W/m² | - |
| 1778086153 | 8.89° C | 41% | 1018.7 hPa | 0 mm | - | 634 W/m² | - |
* Rain latest hour (hover to see other rain measurements)
** Current wind speed in m/s (hover to see current wind gust speed)